Вернуться в каталог

STARLINK-3880

АктивенСвязьVLEO
NORAD 52334·PAYLOAD·🇺🇸 United States

Запущен Apr 29, 2022 с Cape Canaveral Space Force Station

Loading…

Ближайшие Пролёты (ближайшие 24 часа)

TLE

СвежийSource: CelesTrak SupGP

Эпоха: Sep 15, 2026, 01:24 UTC

1 52334C 22045D   26258.05881944  .00707380  00000+0  22027-1 0  2588
2 52334  53.1604  76.9318 0001150  81.7540 133.9426 15.32376622    10

Отслеживайте STARLINK-3880 в реальном времени с AllMySat

Download on the App Store